Regional Weather Roundup
Issued by NWS Upton, NY

Current Version | Previous Version | Graphics & Text | Print | Product List | Glossary Off
Versions: 1 2 3 4 5 6 7 8 9 10 11 12 13 14 15 16 17 18 19 20 21 22 23 24 25 26 27 28 29 30 31 32 33 34 35 36 37 38 39 40 41 42 43 44 45 46 47 48 49 50

000
ASUS41 KOKX 081804
RWROKX

REGIONAL WEATHER ROUNDUP
NATIONAL WEATHER SERVICE NEW YORK NY
100 PM EST MON FEB 08 2016

NOTE: "FAIR" INDICATES FEW OR NO CLOUDS BELOW 12,000 FEET WITH NO
SIGNIFICANT WEATHER AND/OR OBSTRUCTIONS TO VISIBILITY.

NYZ071-072-176-178-NJZ106-104-081900-
NEW YORK CITY METRO AREA


CITY           SKY/WX    TMP DP  RH WIND       PRES   REMARKS
CENTRAL PARK   CLOUDY    32  24  72 NE10G23   29.77F WCI  24
LAGUARDIA APRT CLOUDY    32  24  72 N16       29.75F WCI  21
KENNEDY INTL   LGT SNOW  31  26  82 N18       29.76F WCI  19
NEWARK/LIBERTY CLOUDY    35  23  61 N13       29.75F WCI  26
BRNX BOT. GARD   N/A     32  25  74 NW5       29.75F WCI  27
TETERBORO      CLOUDY    33  22  63 N12       29.75F WCI  24
$$

NYZ177-179-078>081-081900-
LONG ISLAND NEW YORK

CITY           SKY/WX    TMP DP  RH WIND       PRES   REMARKS
FARMINGDALE    LGT SNOW  29  24  82 N21       29.73F WCI  16
ISLIP          LGT SNOW  27  23  85 N21G32    29.70F VSB 1   WCI  13
SHIRLEY        LGT SNOW  26  23  88 N17G26    29.72F VSB 1   WCI  13
RIVERHEAD        N/A     27  23  86 E6        29.69F WCI  20
WESTHAMPTON      N/A    N/A N/A N/A MISG      29.70F
EAST HAMPTON   SNOW      24  22  90 MISG      29.69F VSB 1/2
MONTAUK POINT    N/A     25  23  92 N20G33    29.67F WCI  11
$$

NYZ052-065-067-081900-
HUDSON VALLEY

CITY           SKY/WX    TMP DP  RH WIND       PRES   REMARKS
WHITE PLAINS   SNOW      28  23  81 N14       29.73F VSB 1/2 WCI  17
NEWBURGH       PTSUNNY   34  14  44 E12G17    29.77F WCI  25
MONTGOMERY     CLOUDY    35  11  36 N13       29.75F WCI  26
POUGHKEEPSIE   CLOUDY    32  19  58 NE7       29.77F WCI  26
ALBANY         CLOUDY    36   3  25 N9        29.82F WCI  29
$$

NJZ001-105-106-008-010-013-015-019>022-104-081900-
NEW JERSEY

CITY           SKY/WX    TMP DP  RH WIND       PRES   REMARKS
NEWARK/LIBERTY CLOUDY    35  23  61 N13       29.75F WCI  26
TETERBORO      CLOUDY    33  22  63 N12       29.75F WCI  24
CALDWELL       CLOUDY    37  20  50 NE10      29.75F WCI  30
MORRISTOWN     CLOUDY    37  21  52 NE10G18   29.75F WCI  30
SOMERVILLE     CLOUDY    40  23  50 NE8       29.72F WCI  34
SUSSEX         CLOUDY    35  15  44 NE12      29.74F WCI  27
ANDOVER          N/A     35  16  45 MISG      29.73F
TRENTON        CLOUDY    40  26  57 NE17      29.71F WCI  31
MILLVILLE      CLOUDY   N/A N/A N/A NE12      29.70F
ATLANTIC CITY  CLOUDY    41  28  60 NE18G24   29.68F
WRIGHTSTOWN    CLOUDY    37  36  93 NE17      29.69F WCI  28
TOMS RIVER     CLOUDY    37  25  60 NE15      29.73F WCI  28
BELMAR         CLOUDY    34  21  60 N14G29    29.72F WCI  24
$$

PAZ047>061-062-071-081900-
EASTERN PENNSYLVANIA

CITY           SKY/WX    TMP DP  RH WIND       PRES   REMARKS
PHILADELPHIA   CLOUDY    42  26  53 NE14      29.72F
ALLENTOWN      CLOUDY    42  25  50 E10       29.71F
SCRANTON       CLOUDY    38  22  52 E8        29.68F WCI  32
$$

CTZ002-004>006-009-010-012-RIZ004-006-007-MAZ004-011-015-081900-
SOUTHERN NEW ENGLAND
 IN CT

CITY           SKY/WX    TMP DP  RH WIND       PRES   REMARKS
BRADLEY INTL   LGT SNOW  22  16  78 N13G23    29.77F WCI  10
HARTFORD       LGT SNOW  23  18  81 N15G24    29.78F VSB 3/4 WCI  10
DANBURY        LGT SNOW  26  19  74 NE10      29.75F VSB 1   WCI  16
WTRBRY/OXFORD  LGT SNOW  21  10  63 N16G25    29.73F VSB 1   WCI   7
BRIDGEPORT     LGT SNOW  26  21  81 N15G22    29.75F VSB 3/4 WCI  14
MERIDEN        LGT SNOW  24  16  71 N17G23    29.76F WCI  11
NEW HAVEN      LGT SNOW  24  19  81 N15G24    29.74F VSB 3/4 WCI  11
CHESTER        SNOW      23  21  93 N16G24    29.71F VSB 1/2 WCI  10
GROTON         FOG       22  20  92 N21G26    29.68F VSB 1/2 WCI   6
WILLIMANTIC    LGT SNOW  23  17  78 N9G20     29.74F VSB 3/4 WCI  13

 IN RI

CITY           SKY/WX    TMP DP  RH WIND       PRES   REMARKS
PROVIDENCE     HVY SNOW  20  16  84 N24G32    29.70F VSB 1/4 WCI   3
BLOCK ISLAND   CLOUDY    25  19  80 N21G33    29.61F WCI  10
WESTERLY       FOG       23  20  88 N14G26    29.67F VSB 1/2 WCI  11

 IN MA

CITY           SKY/WX    TMP DP  RH WIND       PRES   REMARKS
BOSTON         SNOW      19  15  84 N21G31    29.76F VSB 1/4 WCI   3
WORCESTER      SNOW      16  12  84 NE15G24   29.70F VSB 1/4 WCI   1
WESTFIELD      SNOW      21  17  84 N16       29.79F VSB 1/2 WCI   7
PROVINCETOWN   HVY SNOW  31  30  96 NE25G44   29.64F VSB 1/4 WCI  17
NANTUCKET      BLWGSNOW  32  30  92 N44G54    29.51F VSB 1/4 WCI  15
$$

ANZ330-335-338-340-345-350-353-355-081900-
COASTAL MARINE OBSERVATIONS


STATION/POSITION TIME  SKY/WX   TEMP    WIND        PRES    VSBY  WAVE
                                AIR SEA DIR/SP/G                  HT/PER
                 (UTC)          (F)     (DEG/KT/KT) (MB)    (MI)  (FT/S)
NY HARB ENTRANCE 1650            32 44   10/ 23/ 27 1006.5         11/13
4S FIRE IS       NOT AVBL
20S FIRE ISLAND  1650            32 45  360/ 25/ 31 1005.3         14/13
GREAT SOUTH BAY  NOT AVBL
23SW MTP         1750            29 45  360/ 31/ 39 1002.5         15/11
HUDSON CANYON    1650            38 51              1001.2         21/12
KINGS POINT      1700            28 39   50/ 17/ 21 1007.9
EXECUTION ROCKS  NOT AVBL
CENTRAL LI SOUND NOT AVBL
EASTERN LI SOUND NOT AVBL
ROBBINS REEF     1700            32      20/ 16/ 19 1007.4
$$


>>>>>>>>>>>>>>>>>>>>>>>>>>>> KEY <<<<<<<<<<<<<<<<<<<<<<<<<<<
>                                                          <
>     SKY/WX - SKY CONDITION/PRESENT WEATHER               <
>     TMP    - TEMPERATURE IN FAHRENHEIT                   <
>     DP     - DEWPOINT IN FAHRENHEIT                      <
>     RH     - RELATIVE HUMIDITY IN PERCENT                <
>     WIND   - DIRECTION AND SPEED IN MPH                  <
>     PRES   - MEAN SEA LEVEL PRESSURE IN INCHES OF HG     <
>     WCI    - WIND CHILL INDEX                            <
>     VSB    - VISIBILITY IN MILES                         <
>     HX     - HEAT INDEX                                  <
>     TC     - TEMPERATURE IN CELSIUS                      <
>     VRB    - VARIABLE WIND DIRECTION                     <
>                                                          <
>>>>>>>>>>>>>>>>>>>>>>>>>>>> KEY <<<<<<<<<<<<<<<<<<<<<<<<<<<





USA.gov is the U.S. government's official web portal to all federal, state and local government web resources and services.